User: anonymous   Login
Location: Sunny Point
(33.0946°N, 85.0574°W)
Time: 14:03:37
(UTC+00:00)
Language:

PRISM - Orbit

View from above orbital plane
View from above orbital plane
View from above satellite
View from above satellite

Ground track
Ground track

The orbit data is extracted from the following two-line orbital elements,

1 33493U 09002B   24193.87113322  .00025200  00000-0  11468-2 0  9990
2 33493  98.2028 243.6434 0013168 159.5511 200.6252 15.20627425842808
Epoch (UTC): 11 July 2024 20:54:25
Eccentricity: 0.0013168
inclination: 98.2028°
perigee height: 495 km
apogee height: 513 km
right ascension of ascending node: 243.6434°
argument of perigee: 159.5511°
revolutions per day: 15.20627425
mean anomaly at epoch: 200.6252°
orbit number at epoch: 84280

The dashed part of the orbit path shows where the satellite is in the earth's shadow,  

DLR